Погода в Карасу

Турция     41°06′12″N   30°41′47″E
темп.,
°C
ветер,
м/с
пор.,
м/с
влажн.,
%
обл.,
%
осадки,
мм/ч
давл.,
гПа
погр.,
м
22 сентября, ср
ср2200:00+15ссв5789100 1.9 1021593
03:00+15св3688100 2.4 1020361
06:00+14св358555 0.9 1019252
09:00+15св457649 1.4 1019697
12:00+17св456334 0.4 10181157
15:00+18св445729 0.6 10161280
18:00+16св4563100 0.0 1016754
21:00+14всв3574100 0.1 1015251
23 сентября, чт
чт2300:00+13всв2383100 0.6 1014122
03:00+13св2492100 3.6 1014244
06:00+12ссв71194100 16.6 1013894
09:00+11ссв3694100 28.8 1015496
12:00+12в3593100 9.3 1016317
15:00+12ссз1393100 7.9 1016331
18:00+12ссв4784100 3.7 1018396
21:00+12с368449 6.8 1019259
24 сентября, пт
пт2400:00+12ссз248158 1.6 1020184
03:00+12юз128261 2.4 1020133
06:00+9ю22887 0.3 102045
09:00+13ю237710 0.4 1020238
12:00+17з115495 0.0 10191269
15:00+17зсз22515 0.0 10181103
18:00+16всв116418 0.0 101742
21:00+13ю22635 0.0 101831
25 сентября, сб
сб2500:00+12ю336552 0.0 101849
03:00+12ю34615 0.0 101860
06:00+13ю4554100 0.0 101866
09:00+17юз355361 0.0 1021258
12:00+20з33545 0.0 1022854
15:00+21с32573 0.0 1021983
18:00+18св34721 0.0 1022176
21:00+15в34820 0.0 102385
26 сентября, вс
вс2600:00+14вюв22790 0.0 102337
03:00+14вюв22750 0.0 102337
06:00+13вюв11720 0.0 102231
09:00+18всв12600 0.0 1022174
12:00+21св34520 0.0 1022565
15:00+21св56560 0.0 1021536
18:00+18св47730 0.0 1020313
21:00+15в23810 0.0 101984